Location: ??????
(56.0120°N, 39.1740°E)
Time: 22:24:29
(UTC+00:00)

BREEZE-M DEB (TANK) - Pass Details

Date: 14 April 2026
Orbit: 316 x 13396 km, 49.6° (Epoch: 12 May)

Event Time Altitude Azimuth Distance (km) Brightness Sun altitude
Rises 17:18:08 0° 246° (WSW) 2,277 6.6 -7.2°
Reaches altitude 10° 17:20:21 10° 228° (SW) 1,236 4.9 -7.5°
Maximum altitude 17:22:11 21° 172° (S) 800 3.3 -7.7°
Enters shadow 17:24:05 11° 120° (ESE) 1,331 4.1 -8.0°
